Regional Weather Roundup
Issued by NWS Nashville, TN

Current Version | Previous Version | Text Only | Print | Product List | Glossary On
Versions: 1 2 3 4 5 6 7 8 9 10 11 12 13 14 15 16 17 18 19 20 21 22 23 24 25 26 27 28 29 30 31 32 33 34 35 36 37
000
ASUS44 KOHX 301115
RWROHX
MIDDLE TENNESSEE HOURLY WEATHER ROUNDUP
NATIONAL WEATHER SERVICE NASHVILLE TN
600 AM CDT FRI SEP 30 2022

NOTE: "FAIR" INDICATES FEW OR NO CLOUDS BELOW 12,000 FEET WITH
NO SIGNIFICANT WEATHER AND/OR OBSTRUCTIONS TO VISIBILITY.

* THESE REPORTS ARE NOT UNDER NWS QUALITY CONTROL AND MAY NOT
  REPORT WEATHER SUCH AS PRECIPITATION AND FOG.


TNZ005>011-023>034-057-059-062>066-078-080-301200
...NORTHERN MIDDLE TENNESSEE...

CITY           SKY/WX    TMP DP  RH WIND       PRES   REMARKS
CLARKSVILLE    CLEAR     46  41  82 N3        30.17R
CROSSVILLE     CLOUDY    45  45 100 NE6       30.13S FOG
DICKSON        CLEAR     46  45  93 NE7       30.13S
GALLATIN       CLEAR     50  48  93 NE8       30.16S
LEBANON        CLEAR     48  46  93 N3        30.12S
LIVINGSTON     CLEAR     46  45  93 NE7       30.13R
NASHVILLE      CLEAR     50  43  77 N6        30.15S
PORTLAND       CLEAR     46  46 100 CALM      30.15S
ROCKWOOD       CLEAR     43  41  93 N5        30.11S
SMYRNA         CLEAR     46  44  93 NW3       30.15R
SPARTA         CLEAR     46  46 100 CALM      30.13R
SPRINGFIELD    CLEAR     46  45  93 NE6       30.14S
WEST NASHVILLE CLEAR     48  45  87 CALM      30.12S
$$
TNZ056-058-060-061-075>077-079-093>097-301200
...SOUTHERN MIDDLE TENNESSEE...

CITY           SKY/WX    TMP DP  RH WIND       PRES   REMARKS
COLUMBIA       CLEAR     45  45 100 CALM      30.11R
FAYETTEVILLE   CLEAR     48  48 100 NE6       30.11R
LAWRENCEBURG   CLEAR     48  45  87 N6        30.10S
LEWISBURG      CLEAR     39  39 100 CALM      30.12S
MCMINNVILLE    CLEAR     45  45 100 NE3       30.12R
MURFREESBORO   CLEAR     48  45  87 CALM      30.12R
PULASKI        CLEAR     48  46  93 CALM      30.11S
SHELBYVILLE    CLEAR     45  45 100 N5        30.11S
TULLAHOMA      CLEAR     50  46  87 NE6       30.10R
WINCHESTER     CLEAR     45  43  93 CALM      30.10R
$$


...KEY TO REMARKS...
VSB - VISIBILITY IN MILES
WCI - WIND CHILL INDEX
HX  - HEAT INDEX




USA.gov is the U.S. government's official web portal to all federal, state and local government web resources and services.